Kezdőlap
METAR-TAF:

METAR-TAF

Repülőterek :

Appleton Municipal Airport

Appleton, Minnesota, Amerikai Egyesült Államok

földrajzi szélesség: 45-13-39N, földrajzi hosszúság: 096-00-15W, magasság: 310 m

Jelenlegi meteorológiai megfigyelések

A jelentés 22 perccel ezelõtt készült, 06:33 UTC
Északi szél 9 kt
Hőmérséklet 16°C
Páratartalom 88%
Légköri nyomás 1009 hPa
Látótávolság: 11.3 km
Szakadozott felhőzet 7500 lábon

METAR: KAQP 210633Z AUTO 36009KT 7SM BKN075 16/14 A2979 RMK AO2 TSNO

Idő: 01:55 (06:55 UTC)


TAF: hiányzik

Meteorológiai megfigyelések és előrejelzések több, mint 4000 repülőtéren (METAR és TAF jelentéseket).

A térképen piros és sárga pontok jelzik az elérhető meteorológiai állomásokat.

Mozgassa az egeret a pont fölött, hogy megjelenjen az állomás neve.

Azután kattintson az időjárási megfigyelések és előrejelzések megtekintéséhez.

A térkép megváltoztatása: kattintson a fekete keresztel jelölt zöld gombra ráközelítéshez, a vonallal jelölt zöld gombra távolításhoz, vagy a zöld nyilakra a szomszédos térképek eléréséhez.


METAR-TAF: